Weather History for KISQ - January, 2014

Change the Weather History Date:

Thursday, January 16, 2014

  Actual Average Record
Temperature  
Mean Temperature 22 °F -  
Max Temperature 30 °F 24 °F 44 °F (1999)
Min Temperature 15 °F 7 °F -17 °F (1965)
Degree Days  
Heating Degree Days 42    
Moisture  
Dew Point 23 °F    
Average Humidity 89    
Maximum Humidity 94    
Minimum Humidity 80    
Precipitation  
Precipitation 0.00 in - - ()
Sea Level Pressure  
Sea Level Pressure 29.48 in    
Wind  
Wind Speed 11 mph (SSW)    
Max Wind Speed 23 mph    
Max Gust Speed 33 mph    
Visibility 7 miles    
Events Snow    
Averages and records for this station are not official NWS values.
T = Trace of Precipitation, MM = Missing Value Source: NWS Daily Summary

Daily Weather History Graph

Daily Weather History Graph

Search for Another Location

Airport or City:

Trip Planner

Search our weather history database for the weather conditions in past years. The results will help you decide how hot, cold, wet, or windy it might be!

Date:

Astronomy

Jan. 16, 2014 Rise Set
Actual Time 8:21 AM EST 5:27 PM EST
Civil Twilight 7:48 AM EST 6:00 PM EST
Nautical Twilight 7:11 AM EST 6:37 PM EST
Astronomical Twilight 6:35 AM EST 7:13 PM EST
Moon 6:24 PM EST (1/16) 8:10 AM EST (1/16)
Length of Visible Light 10h 12m
Length of Day
9h 05m
Full, 100% of the Moon is Illuminated
Jan 16
Full
Jan 24
Last Quarter
Jan 30
New
Feb 6
First Quarter
Feb 14
Full

Hourly Weather History & Observations

Time (EST) Temp. Windchill Dew Point Humidity Pressure Visibility Wind Dir Wind Speed Gust Speed Precip Events Conditions
12:14 AM 15.8 °F 3.4 °F 11.7 °F 84% 29.65 in 10.0 mi SW 10.4 mph - N/A   Overcast
12:35 AM 16.2 °F 6.5 °F 12.0 °F 84% 29.64 in 10.0 mi SW 6.9 mph - N/A   Overcast
12:55 AM 17.1 °F 4.3 °F 13.3 °F 85% 29.62 in 2.0 mi SW 11.5 mph 18.4 mph N/A Snow Light Snow
1:14 AM 17.4 °F 7.1 °F 13.3 °F 84% 29.59 in 5.0 mi SSW 8.1 mph - N/A Snow Light Snow
1:35 AM 18.9 °F 10.8 °F 14.7 °F 84% 29.58 in 10.0 mi WSW 5.8 mph - N/A   Overcast
1:54 AM 18.5 °F 7.5 °F 13.8 °F 82% 29.58 in 10.0 mi SW 9.2 mph - N/A Snow Light Snow
2:15 AM 19.4 °F 7.9 °F 15.6 °F 85% 29.57 in 3.0 mi SW 10.4 mph 18.4 mph N/A Snow Light Snow
2:34 AM 20.3 °F 8.3 °F 15.8 °F 83% 29.57 in 10.0 mi SW 11.5 mph 18.4 mph N/A   Overcast
2:55 AM 21.2 °F 8.9 °F 15.8 °F 80% 29.55 in 3.0 mi SSW 12.7 mph 23.0 mph N/A Snow Light Snow
3:15 AM 20.8 °F 9.7 °F 17.8 °F 88% 29.55 in 1.2 mi SW 10.4 mph 18.4 mph N/A Snow Light Snow
3:34 AM 21.9 °F 6.9 °F 19.8 °F 91% 29.53 in 0.8 mi SSW 19.6 mph 26.5 mph N/A Snow Snow
3:55 AM 22.6 °F 8.3 °F 19.4 °F 87% 29.52 in 1.0 mi SSW 18.4 mph 27.6 mph N/A Snow Snow
4:14 AM 23.7 °F 8.5 °F 21.7 °F 92% 29.50 in 0.5 mi SSW 21.9 mph 27.6 mph N/A Snow Snow
4:34 AM 24.1 °F 9.8 °F 21.9 °F 91% 29.49 in 0.8 mi SSW 19.6 mph 29.9 mph N/A Snow Snow
4:55 AM 24.8 °F 10.0 °F 22.5 °F 91% 29.48 in 1.0 mi SSW 21.9 mph 29.9 mph N/A Snow Snow
5:14 AM 25.2 °F 10.1 °F 22.8 °F 91% 29.47 in 0.8 mi SSW 23.0 mph 33.4 mph N/A Snow Snow
5:35 AM 24.8 °F 16.1 °F 22.6 °F 91% 29.46 in 0.8 mi WSW 8.1 mph 23.0 mph N/A Snow Snow
5:55 AM 23.4 °F 14.3 °F 21.4 °F 92% 29.45 in 0.8 mi SW 8.1 mph - N/A Snow Snow
6:14 AM 23.5 °F 14.5 °F 21.0 °F 90% 29.45 in 1.5 mi SW 8.1 mph 17.3 mph N/A Snow Light Snow
6:35 AM 24.3 °F 12.2 °F 21.9 °F 91% 29.44 in 1.8 mi SW 13.8 mph 23.0 mph N/A Snow Light Snow
6:55 AM 24.3 °F 12.7 °F 21.7 °F 90% 29.43 in 1.8 mi SW 12.7 mph 19.6 mph N/A Snow Light Snow
7:14 AM 23.9 °F 13.5 °F 21.6 °F 91% 29.43 in 2.5 mi SW 10.4 mph 16.1 mph N/A Snow Light Snow
7:35 AM 24.4 °F 14.9 °F 22.1 °F 91% 29.43 in 2.5 mi SW 9.2 mph 16.1 mph N/A Snow Light Snow
7:54 AM 24.8 °F 14.6 °F 22.1 °F 89% 29.42 in 4.0 mi SW 10.4 mph 18.4 mph N/A Snow Light Snow
8:15 AM 25.3 °F 14.1 °F 22.5 °F 89% 29.42 in 3.0 mi SW 12.7 mph 19.6 mph N/A Snow Light Snow
8:34 AM 25.5 °F 16.2 °F 22.6 °F 89% 29.42 in 4.0 mi SW 9.2 mph 17.3 mph N/A Snow Light Snow
8:55 AM 25.5 °F 16.9 °F 22.6 °F 89% 29.42 in 5.0 mi SW 8.1 mph 16.1 mph N/A Snow Light Snow
9:15 AM 25.5 °F 15.5 °F 22.8 °F 89% 29.43 in 5.0 mi SW 10.4 mph - N/A Snow Light Snow
9:34 AM 25.5 °F 16.2 °F 22.1 °F 87% 29.43 in 5.0 mi SW 9.2 mph 16.1 mph N/A Snow Light Snow
9:55 AM 25.7 °F 17.1 °F 22.6 °F 88% 29.43 in 7.0 mi SW 8.1 mph - N/A Snow Light Snow
10:14 AM 26.1 °F 18.4 °F 23.0 °F 88% 29.43 in 10.0 mi SW 6.9 mph - N/A   Overcast
10:34 AM 26.2 °F 18.6 °F 22.8 °F 87% 29.44 in 10.0 mi WSW 6.9 mph - N/A   Overcast
10:55 AM 26.2 °F 20.7 °F 22.8 °F 87% 29.44 in 10.0 mi WSW 4.6 mph - N/A Snow Light Snow
11:14 AM 26.1 °F - 22.8 °F 88% 29.43 in 10.0 mi Calm Calm - N/A   Overcast
11:35 AM 26.1 °F - 22.8 °F 88% 29.43 in 10.0 mi Calm Calm - N/A   Overcast
11:55 AM 26.2 °F 20.7 °F 22.8 °F 87% 29.43 in 10.0 mi SW 4.6 mph - N/A   Overcast
12:14 PM 26.6 °F 21.2 °F 22.8 °F 86% 29.43 in 10.0 mi SW 4.6 mph - N/A   Overcast
12:35 PM 27.1 °F 20.7 °F 23.0 °F 84% 29.42 in 10.0 mi SW 5.8 mph - N/A   Overcast
12:54 PM 27.1 °F 20.7 °F 23.2 °F 85% 29.42 in 10.0 mi SSW 5.8 mph - N/A   Overcast
1:14 PM 27.3 °F 22.0 °F 23.5 °F 86% 29.42 in 10.0 mi SSW 4.6 mph - N/A   Overcast
1:35 PM 27.5 °F 23.6 °F 24.3 °F 88% 29.41 in 10.0 mi SW 3.5 mph - N/A   Overcast
1:54 PM 28.2 °F 21.0 °F 25.7 °F 90% 29.40 in 7.0 mi SSW 6.9 mph - N/A   Overcast
2:15 PM 29.5 °F 18.4 °F 27.3 °F 92% 29.41 in 7.0 mi South 15.0 mph 20.7 mph N/A   Overcast
2:35 PM 30.0 °F 19.1 °F 27.5 °F 90% 29.41 in 7.0 mi South 15.0 mph 25.3 mph N/A   Overcast
2:54 PM 29.8 °F 18.4 °F 27.5 °F 91% 29.42 in 7.0 mi South 16.1 mph - N/A   Overcast
3:15 PM 29.3 °F 18.2 °F 26.8 °F 90% 29.42 in 7.0 mi SSE 15.0 mph 23.0 mph N/A   Overcast
3:35 PM 29.3 °F 17.3 °F 26.6 °F 90% 29.43 in 7.0 mi SSE 17.3 mph 21.9 mph N/A   Overcast
3:54 PM 29.3 °F 17.7 °F 26.8 °F 90% 29.43 in 10.0 mi South 16.1 mph 23.0 mph N/A   Overcast
4:15 PM 29.7 °F 20.1 °F 26.8 °F 89% 29.44 in 10.0 mi SSE 11.5 mph 21.9 mph N/A   Overcast
4:34 PM 29.7 °F 19.1 °F 26.6 °F 88% 29.44 in 10.0 mi SSE 13.8 mph - N/A   Overcast
4:54 PM 29.7 °F 19.6 °F 26.6 °F 88% 29.45 in 10.0 mi SSE 12.7 mph 19.6 mph N/A   Overcast
5:15 PM 30.0 °F 19.5 °F 27.3 °F 90% 29.45 in 10.0 mi SSE 13.8 mph 18.4 mph N/A   Overcast
5:34 PM 30.0 °F 20.0 °F 27.3 °F 90% 29.46 in 10.0 mi SSE 12.7 mph 20.7 mph N/A   Overcast
5:55 PM 30.0 °F 20.0 °F 27.1 °F 89% 29.47 in 10.0 mi SSE 12.7 mph 20.7 mph N/A   Overcast
6:15 PM 29.8 °F 20.9 °F 27.1 °F 90% 29.48 in 10.0 mi SSE 10.4 mph - N/A   Overcast
6:34 PM 29.8 °F 19.8 °F 26.8 °F 88% 29.48 in 10.0 mi SSE 12.7 mph - N/A   Overcast
6:55 PM 29.7 °F 19.6 °F 26.6 °F 88% 29.49 in 10.0 mi SSE 12.7 mph 18.4 mph N/A   Overcast
7:15 PM 29.7 °F 19.6 °F 26.6 °F 88% 29.49 in 10.0 mi SSE 12.7 mph - N/A   Overcast
7:34 PM 29.7 °F 19.6 °F 26.6 °F 88% 29.50 in 10.0 mi SSE 12.7 mph - N/A   Overcast
7:55 PM 29.7 °F 20.1 °F 26.6 °F 88% 29.50 in 10.0 mi SSE 11.5 mph 17.3 mph N/A   Overcast
8:14 PM 29.8 °F 19.8 °F 26.8 °F 88% 29.50 in 10.0 mi SSE 12.7 mph - N/A   Overcast
8:34 PM 29.7 °F 20.7 °F 27.1 °F 90% 29.50 in 10.0 mi SSE 10.4 mph 17.3 mph N/A   Overcast
8:55 PM 29.7 °F 21.3 °F 27.1 °F 90% 29.51 in 10.0 mi SSE 9.2 mph - N/A Snow Light Snow
9:14 PM 29.8 °F 21.5 °F 27.3 °F 90% 29.51 in 10.0 mi SSE 9.2 mph - N/A Snow Light Snow
9:35 PM 29.8 °F 22.2 °F 27.5 °F 91% 29.52 in 10.0 mi SSE 8.1 mph 16.1 mph N/A   Overcast
9:55 PM 29.7 °F 20.7 °F 27.5 °F 92% 29.52 in 10.0 mi SSE 10.4 mph - N/A   Overcast
10:14 PM 29.7 °F 21.3 °F 27.5 °F 92% 29.53 in 10.0 mi SSE 9.2 mph - N/A   Overcast
10:35 PM 29.7 °F 20.7 °F 28.0 °F 94% 29.53 in 7.0 mi SSE 10.4 mph 16.1 mph N/A   Overcast
10:54 PM 29.1 °F 20.0 °F 27.1 °F 92% 29.53 in 7.0 mi SSE 10.4 mph - N/A   Overcast
11:14 PM 28.9 °F 19.2 °F 26.6 °F 91% 29.53 in 7.0 mi SSE 11.5 mph - N/A   Overcast
11:35 PM 28.6 °F 19.3 °F 26.6 °F 92% 29.54 in 7.0 mi SSE 10.4 mph 16.1 mph N/A   Overcast
11:54 PM 28.4 °F 19.7 °F 26.4 °F 92% 29.54 in 7.0 mi SE 9.2 mph - N/A   Overcast